Terminal Aerodrome Forecast
Issued by NWS Wilmington, NC

Home | Current Version | Previous Version | Text Only | Print | Product List | Glossary On
Versions: 1 2 3 4 5 6 7 8 9 10 11 12 13 14 15 16 17 18 19 20 21 22 23 24
060
FTUS42 KILM 240303 AAE
TAFFLO
TAF AMD
KFLO 240303Z 2403/2424 25006KT P6SM SCT045
      TEMPO 2404/2408 5SM BR
     FM240800 24008KT 4SM BR BKN012
     FM241000 26008KT P6SM SCT020
     FM241500 24006KT P6SM SCT120=

USA.gov is the U.S. government's official web portal to all federal, state and local government web resources and services.